Simultaneous Nadir Overpasses (SNOs) Predictions

Prediction of SNOs between GOES-16 and AQUA Satellite Orbit:

Table of predicted SNOs for the next 14.0 days since TLE Epoch: 2/10/2024
Index Date Time (GOES-16) GOES-16 Lat,Lon AQUA Lat,Lon Distance(km) Time Diff (sec)
1 02/10/2024 07:09:08 -0.07, -75.20 0.18, -76.45 141.39 80
2 02/12/2024 06:50:54 -0.07, -75.21 -0.61, -72.64 292.52 80
3 02/12/2024 19:11:25 0.06, -75.22 -0.44, -77.61 271.74 80
4 02/14/2024 18:58:30 0.06, -75.24 0.35, -73.80 163.55 80
5 02/15/2024 07:18:53 -0.06, -75.25 0.67, -78.74 396.95 80
6 02/17/2024 07:00:37 -0.06, -75.27 -0.13, -74.93 39.22 80
7 02/19/2024 06:45:00 -0.05, -75.30 -0.93, -71.11 476.25 80
8 02/19/2024 19:05:31 0.05, -75.31 -0.13, -76.07 87.42 80
9 02/21/2024 18:52:33 0.04, -75.34 0.67, -72.25 351.16 80
10 02/22/2024 07:12:55 -0.03, -75.36 0.37, -77.18 208.16 80
